Time,TemperatureF,DewpointF,PressureIn,WindDirection,WindDirectionDegrees,WindSpeedMPH,WindSpeedGustMPH,Humidity,HourlyPrecipIn,Conditions,Clouds,dailyrainin,SoftwareType,DateUTC
2013-04-08 00:00:00,43.9,34.4,30.06,ENE,59,1.0,1.0,69,0.00,,,0.00,Wunderground v.1.15,2013-04-08 04:00:00,
2013-04-08 00:05:00,43.7,34.6,30.06,ENE,66,1.0,1.0,70,0.00,,,0.00,Wunderground v.1.15,2013-04-08 04:05:00,
2013-04-08 00:10:00,43.5,34.7,30.07,East,94,1.0,1.0,71,0.00,,,0.00,Wunderground v.1.15,2013-04-08 04:10:00,
2013-04-08 00:20:00,43.1,34.7,30.07,ENE,68,1.0,1.0,72,0.00,,,0.00,Wunderground v.1.15,2013-04-08 04:20:00,
2013-04-08 00:25:00,42.9,34.8,30.07,East,87,1.0,1.0,73,0.00,,,0.00,Wunderground v.1.15,2013-04-08 04:25:00,
2013-04-08 00:35:00,42.4,35.0,30.08,NE,52,2.0,2.0,75,0.00,,,0.00,Wunderground v.1.15,2013-04-08 04:35:00,
2013-04-08 00:45:00,42.0,35.0,30.08,ENE,77,2.0,2.0,76,0.00,,,0.00,Wunderground v.1.15,2013-04-08 04:45:00,
2013-04-08 00:50:00,41.9,34.9,30.08,ENE,58,2.0,2.0,76,0.00,,,0.00,Wunderground v.1.15,2013-04-08 04:50:00,
2013-04-08 01:00:00,41.6,34.9,30.08,ENE,70,1.0,2.0,77,0.00,,,0.00,Wunderground v.1.15,2013-04-08 05:00:00,
2013-04-08 01:10:00,41.1,34.8,30.08,ENE,72,1.0,1.0,78,0.00,,,0.00,Wunderground v.1.15,2013-04-08 05:10:00,
2013-04-08 01:20:00,40.8,34.8,30.08,East,88,1.0,4.0,79,0.00,,,0.00,Wunderground v.1.15,2013-04-08 05:20:00,
2013-04-08 01:25:00,40.8,34.8,30.08,ENE,77,1.0,4.0,79,0.00,,,0.00,Wunderground v.1.15,2013-04-08 05:25:00,
2013-04-08 01:35:00,40.5,34.8,30.08,East,87,1.0,2.0,80,0.00,,,0.00,Wunderground v.1.15,2013-04-08 05:35:00,
2013-04-08 01:40:00,40.4,34.7,30.08,East,95,1.0,1.0,80,0.00,,,0.00,Wunderground v.1.15,2013-04-08 05:40:00,
2013-04-08 01:50:00,40.2,34.5,30.08,East,93,1.0,2.0,80,0.00,,,0.00,Wunderground v.1.15,2013-04-08 05:50:00,
2013-04-08 01:55:00,40.0,34.3,30.08,East,79,1.0,2.0,80,0.00,,,0.00,Wunderground v.1.15,2013-04-08 05:55:00,
2013-04-08 02:00:00,39.9,34.2,30.08,ENE,73,0.0,0.0,80,0.00,,,0.00,Wunderground v.1.15,2013-04-08 06:00:00,
2013-04-08 02:10:00,39.7,34.3,30.08,East,89,0.0,1.0,81,0.00,,,0.00,Wunderground v.1.15,2013-04-08 06:10:00,
2013-04-08 02:20:00,39.5,34.5,30.07,ENE,74,1.0,1.0,82,0.00,,,0.00,Wunderground v.1.15,2013-04-08 06:20:00,
2013-04-08 02:25:00,39.4,34.7,30.07,East,84,1.0,1.0,83,0.00,,,0.00,Wunderground v.1.15,2013-04-08 06:25:00,
2013-04-08 02:35:00,39.5,35.1,30.07,ENE,64,1.0,1.0,84,0.00,,,0.00,Wunderground v.1.15,2013-04-08 06:35:00,
2013-04-08 02:40:00,39.4,35.0,30.07,East,89,1.0,1.0,84,0.00,,,0.00,Wunderground v.1.15,2013-04-08 06:40:00,
2013-04-08 02:50:00,39.4,35.0,30.07,ENE,70,1.0,2.0,84,0.00,,,0.00,Wunderground v.1.15,2013-04-08 06:50:00,
2013-04-08 03:00:00,39.0,34.6,30.06,ENE,77,1.0,1.0,84,0.00,,,0.00,Wunderground v.1.15,2013-04-08 07:00:00,
2013-04-08 03:05:00,39.1,34.7,30.06,East,82,1.0,1.0,84,0.00,,,0.00,Wunderground v.1.15,2013-04-08 07:05:00,
2013-04-08 03:15:00,39.3,34.6,30.07,ENE,72,1.0,3.0,83,0.00,,,0.00,Wunderground v.1.15,2013-04-08 07:15:00,
2013-04-08 03:20:00,39.5,34.8,30.06,ENE,77,1.0,3.0,83,0.00,,,0.00,Wunderground v.1.15,2013-04-08 07:20:00,
2013-04-08 03:25:00,39.6,34.9,30.06,ENE,70,2.0,3.0,83,0.00,,,0.00,Wunderground v.1.15,2013-04-08 07:25:00,
2013-04-08 03:35:00,39.7,34.7,30.06,ENE,68,2.0,3.0,82,0.00,,,0.00,Wunderground v.1.15,2013-04-08 07:35:00,
2013-04-08 03:45:00,39.8,34.8,30.06,East,79,2.0,3.0,82,0.00,,,0.00,Wunderground v.1.15,2013-04-08 07:45:00,
2013-04-08 03:55:00,39.7,35.0,30.07,ESE,116,1.0,2.0,83,0.00,,,0.00,Wunderground v.1.15,2013-04-08 07:55:00,
2013-04-08 04:00:00,39.7,35.0,30.06,East,92,2.0,5.0,83,0.00,,,0.00,Wunderground v.1.15,2013-04-08 08:00:00,
2013-04-08 04:10:00,39.7,35.3,30.07,East,86,1.0,1.0,84,0.00,,,0.00,Wunderground v.1.15,2013-04-08 08:10:00,
2013-04-08 04:15:00,39.7,35.3,30.06,East,87,1.0,3.0,84,0.00,,,0.00,Wunderground v.1.15,2013-04-08 08:15:00,
2013-04-08 04:25:00,39.8,35.4,30.06,East,79,2.0,3.0,84,0.00,,,0.00,Wunderground v.1.15,2013-04-08 08:25:00,
2013-04-08 04:30:00,39.8,35.4,30.06,SE,131,2.0,2.0,84,0.00,,,0.00,Wunderground v.1.15,2013-04-08 08:30:00,
2013-04-08 04:40:00,39.9,35.5,30.05,SE,124,2.0,3.0,84,0.00,,,0.00,Wunderground v.1.15,2013-04-08 08:40:00,
2013-04-08 04:50:00,40.0,35.3,30.05,ESE,115,2.0,2.0,83,0.00,,,0.00,Wunderground v.1.15,2013-04-08 08:50:00,
2013-04-08 04:55:00,40.0,35.6,30.05,ENE,74,2.0,2.0,84,0.00,,,0.00,Wunderground v.1.15,2013-04-08 08:55:00,
2013-04-08 05:00:00,39.9,35.5,30.04,ENE,71,2.0,2.0,84,0.00,,,0.00,Wunderground v.1.15,2013-04-08 09:00:00,
2013-04-08 05:10:00,39.9,35.5,30.04,East,84,2.0,2.0,84,0.00,,,0.00,Wunderground v.1.15,2013-04-08 09:10:00,
2013-04-08 05:20:00,39.9,35.5,30.04,NE,47,2.0,2.0,84,0.00,,,0.00,Wunderground v.1.15,2013-04-08 09:20:00,
2013-04-08 05:25:00,39.9,35.2,30.03,ENE,60,2.0,4.0,83,0.00,,,0.00,Wunderground v.1.15,2013-04-08 09:25:00,
2013-04-08 05:35:00,40.1,35.4,30.03,East,94,2.0,3.0,83,0.00,,,0.00,Wunderground v.1.15,2013-04-08 09:35:00,
2013-04-08 05:45:00,40.3,35.5,30.03,ENE,75,2.0,2.0,83,0.00,,,0.00,Wunderground v.1.15,2013-04-08 09:45:00,
2013-04-08 05:55:00,40.3,35.5,30.04,SE,124,2.0,3.0,83,0.00,,,0.00,Wunderground v.1.15,2013-04-08 09:55:00,
2013-04-08 06:00:00,40.3,35.5,30.04,SE,125,2.0,2.0,83,0.00,,,0.00,Wunderground v.1.15,2013-04-08 10:00:00,
2013-04-08 06:10:00,40.4,35.6,30.03,East,86,3.0,3.0,83,0.00,,,0.00,Wunderground v.1.15,2013-04-08 10:10:00,
2013-04-08 06:15:00,40.4,35.6,30.03,ENE,70,3.0,3.0,83,0.00,,,0.00,Wunderground v.1.15,2013-04-08 10:15:00,
2013-04-08 06:25:00,40.4,35.6,30.02,ESE,105,2.0,3.0,83,0.00,,,0.00,Wunderground v.1.15,2013-04-08 10:25:00,
2013-04-08 06:30:00,40.5,35.7,30.02,ENE,70,3.0,3.0,83,0.00,,,0.00,Wunderground v.1.15,2013-04-08 10:30:00,
2013-04-08 06:40:00,40.6,35.8,30.02,ENE,76,4.0,5.0,83,0.00,,,0.00,Wunderground v.1.15,2013-04-08 10:40:00,
2013-04-08 06:45:00,40.7,35.6,30.02,East,98,4.0,5.0,82,0.00,,,0.00,Wunderground v.1.15,2013-04-08 10:45:00,
2013-04-08 06:50:00,40.7,35.6,30.02,ENE,65,4.0,4.0,82,0.00,,,0.00,Wunderground v.1.15,2013-04-08 10:50:00,
2013-04-08 07:00:00,40.7,35.6,30.02,ENE,60,4.0,4.0,82,0.00,,,0.00,Wunderground v.1.15,2013-04-08 11:00:00,
2013-04-08 07:05:00,40.7,35.6,30.02,East,88,4.0,4.0,82,0.00,,,0.00,Wunderground v.1.15,2013-04-08 11:05:00,
2013-04-08 07:15:00,40.8,35.7,30.02,ENE,77,3.0,6.0,82,0.00,,,0.00,Wunderground v.1.15,2013-04-08 11:15:00,
2013-04-08 07:25:00,40.8,35.7,30.02,East,84,3.0,6.0,82,0.00,,,0.00,Wunderground v.1.15,2013-04-08 11:25:00,
2013-04-08 07:40:00,41.1,36.0,30.02,East,94,5.0,6.0,82,0.00,,,0.00,Wunderground v.1.15,2013-04-08 11:40:00,
2013-04-08 07:50:00,41.5,36.4,30.02,NE,40,4.0,4.0,82,0.00,,,0.00,Wunderground v.1.15,2013-04-08 11:50:00,
2013-04-08 08:00:00,41.7,36.6,30.02,ENE,70,4.0,4.0,82,0.00,,,0.00,Wunderground v.1.15,2013-04-08 12:00:00,
2013-04-08 08:05:00,41.7,36.6,30.01,ENE,77,4.0,4.0,82,0.00,,,0.00,Wunderground v.1.15,2013-04-08 12:05:00,
2013-04-08 08:15:00,41.8,36.7,30.02,ENE,75,5.0,5.0,82,0.00,,,0.00,Wunderground v.1.15,2013-04-08 12:15:00,
2013-04-08 08:25:00,42.1,37.0,30.02,SE,126,5.0,7.0,82,0.00,,,0.00,Wunderground v.1.15,2013-04-08 12:25:00,
2013-04-08 08:35:00,42.6,37.2,30.02,ENE,70,3.0,6.0,81,0.00,,,0.00,Wunderground v.1.15,2013-04-08 12:35:00,
2013-04-08 08:45:00,43.2,37.4,30.02,SE,131,5.0,6.0,80,0.00,,,0.00,Wunderground v.1.15,2013-04-08 12:45:00,
2013-04-08 08:50:00,43.5,37.4,30.01,ESE,108,5.0,5.0,79,0.00,,,0.00,Wunderground v.1.15,2013-04-08 12:50:00,
2013-04-08 09:00:00,43.9,37.5,30.00,East,93,6.0,6.0,78,0.00,,,0.00,Wunderground v.1.15,2013-04-08 13:00:00,
2013-04-08 09:05:00,43.9,37.2,30.00,ENE,63,5.0,6.0,77,0.00,,,0.00,Wunderground v.1.15,2013-04-08 13:05:00,
2013-04-08 09:15:00,44.0,37.3,30.00,ESE,112,4.0,5.0,77,0.00,,,0.00,Wunderground v.1.15,2013-04-08 13:15:00,
2013-04-08 09:20:00,44.3,37.5,30.00,ESE,117,4.0,4.0,77,0.00,,,0.00,Wunderground v.1.15,2013-04-08 13:20:00,
2013-04-08 09:30:00,44.5,37.7,29.99,ESE,123,5.0,5.0,77,0.00,,,0.00,Wunderground v.1.15,2013-04-08 13:30:00,
2013-04-08 09:35:00,44.7,37.9,29.99,ESE,105,4.0,7.0,77,0.00,,,0.00,Wunderground v.1.15,2013-04-08 13:35:00,
2013-04-08 09:45:00,44.9,38.1,29.98,NNE,31,5.0,5.0,77,0.00,,,0.00,Wunderground v.1.15,2013-04-08 13:45:00,
2013-04-08 09:50:00,44.5,38.1,29.99,East,91,4.0,5.0,78,0.00,,,0.00,Wunderground v.1.15,2013-04-08 13:50:00,
2013-04-08 10:00:00,44.7,38.3,29.99,East,92,4.0,6.0,78,0.00,,,0.00,Wunderground v.1.15,2013-04-08 14:00:00,
2013-04-08 10:10:00,44.9,37.8,29.97,East,80,4.0,7.0,76,0.00,,,0.00,Wunderground v.1.15,2013-04-08 14:10:00,
2013-04-08 10:20:00,44.4,37.6,29.97,ESE,111,4.0,4.0,77,0.00,,,0.00,Wunderground v.1.15,2013-04-08 14:20:00,
2013-04-08 10:25:00,43.8,38.0,29.97,East,98,4.0,8.0,80,0.00,,,0.00,Wunderground v.1.15,2013-04-08 14:25:00,
2013-04-08 10:35:00,43.1,38.3,29.96,ENE,65,5.0,5.0,83,0.00,,,0.00,Wunderground v.1.15,2013-04-08 14:35:00,
2013-04-08 10:40:00,42.9,38.4,29.96,NE,56,4.0,4.0,84,0.00,,,0.00,Wunderground v.1.15,2013-04-08 14:40:00,
2013-04-08 10:50:00,42.6,38.4,29.96,East,94,3.0,6.0,85,0.00,,,0.00,Wunderground v.1.15,2013-04-08 14:50:00,
2013-04-08 10:55:00,42.8,38.6,29.96,ESE,109,3.0,6.0,85,0.00,,,0.00,Wunderground v.1.15,2013-04-08 14:55:00,
2013-04-08 11:00:00,42.8,38.3,29.95,ENE,70,4.0,4.0,84,0.00,,,0.00,Wunderground v.1.15,2013-04-08 15:00:00,
2013-04-08 11:10:00,43.3,38.8,29.94,East,96,3.0,3.0,84,0.00,,,0.00,Wunderground v.1.15,2013-04-08 15:10:00,
2013-04-08 11:20:00,44.3,39.5,29.93,ENE,67,5.0,7.0,83,0.00,,,0.00,Wunderground v.1.15,2013-04-08 15:20:00,
2013-04-08 11:30:00,44.9,39.4,29.93,East,82,5.0,6.0,81,0.00,,,0.00,Wunderground v.1.15,2013-04-08 15:30:00,
2013-04-08 11:35:00,45.1,39.3,29.93,SE,135,6.0,6.0,80,0.00,,,0.00,Wunderground v.1.15,2013-04-08 15:35:00,
2013-04-08 11:45:00,45.3,39.2,29.92,NE,56,4.0,7.0,79,0.00,,,0.00,Wunderground v.1.15,2013-04-08 15:45:00,
2013-04-08 11:50:00,45.1,39.3,29.92,NE,50,6.0,6.0,80,0.00,,,0.00,Wunderground v.1.15,2013-04-08 15:50:00,
2013-04-08 12:00:00,45.1,39.6,29.92,ENE,60,3.0,3.0,81,0.00,,,0.00,Wunderground v.1.15,2013-04-08 16:00:00,
2013-04-08 12:10:00,44.9,39.4,29.90,East,87,4.0,4.0,81,0.00,,,0.00,Wunderground v.1.15,2013-04-08 16:10:00,
2013-04-08 12:20:00,44.9,39.4,29.89,ENE,62,4.0,6.0,81,0.00,,,0.00,Wunderground v.1.15,2013-04-08 16:20:00,
2013-04-08 12:30:00,44.5,39.0,29.89,ENE,72,5.0,5.0,81,0.00,,,0.00,Wunderground v.1.15,2013-04-08 16:30:00,
2013-04-08 12:40:00,44.6,39.4,29.87,East,79,5.0,5.0,82,0.00,,,0.00,Wunderground v.1.15,2013-04-08 16:40:00,
2013-04-08 12:50:00,45.0,39.5,29.88,NE,34,4.0,4.0,81,0.00,,,0.00,Wunderground v.1.15,2013-04-08 16:50:00,
2013-04-08 12:55:00,45.4,39.9,29.88,East,85,3.0,4.0,81,0.00,,,0.00,Wunderground v.1.15,2013-04-08 16:55:00,
2013-04-08 13:00:00,45.6,40.1,29.87,ENE,59,3.0,5.0,81,0.00,,,0.00,Wunderground v.1.15,2013-04-08 17:00:00,
2013-04-08 13:10:00,45.6,39.8,29.86,ENE,57,4.0,4.0,80,0.00,,,0.00,Wunderground v.1.15,2013-04-08 17:10:00,
2013-04-08 13:15:00,45.5,40.0,29.85,ESE,105,5.0,5.0,81,0.00,,,0.00,Wunderground v.1.15,2013-04-08 17:15:00,
2013-04-08 13:25:00,45.4,39.9,29.85,ESE,108,4.0,10.0,81,0.00,,,0.00,Wunderground v.1.15,2013-04-08 17:25:00,
2013-04-08 13:40:00,45.5,40.9,29.85,ESE,104,3.0,3.0,84,0.28,,,0.03,Wunderground v.1.15,2013-04-08 17:40:00,
2013-04-08 13:50:00,45.2,41.6,29.86,ENE,75,1.0,1.0,87,0.16,,,0.06,Wunderground v.1.15,2013-04-08 17:50:00,
2013-04-08 14:00:00,45.1,42.1,29.86,SSW,213,1.0,2.0,89,0.13,,,0.09,Wunderground v.1.15,2013-04-08 18:00:00,
2013-04-08 14:10:00,45.1,42.3,29.85,NE,50,1.0,2.0,90,0.14,,,0.11,Wunderground v.1.15,2013-04-08 18:10:00,
2013-04-08 14:15:00,45.1,42.6,29.84,ENE,70,2.0,2.0,91,0.07,,,0.11,Wunderground v.1.15,2013-04-08 18:15:00,
2013-04-08 14:25:00,45.3,43.1,29.84,NE,53,2.0,2.0,92,0.00,,,0.11,Wunderground v.1.15,2013-04-08 18:25:00,
2013-04-08 14:35:00,45.9,43.7,29.83,East,84,1.0,2.0,92,0.00,,,0.11,Wunderground v.1.15,2013-04-08 18:35:00,
2013-04-08 14:45:00,46.5,44.6,29.82,NE,47,1.0,3.0,93,0.00,,,0.11,Wunderground v.1.15,2013-04-08 18:45:00,
2013-04-08 14:50:00,47.2,45.6,29.82,North,7,1.0,2.0,94,0.00,,,0.11,Wunderground v.1.15,2013-04-08 18:50:00,
2013-04-08 15:00:00,48.5,46.9,29.81,ESE,110,1.0,1.0,94,0.00,,,0.11,Wunderground v.1.15,2013-04-08 19:00:00,
2013-04-08 15:10:00,49.2,47.3,29.80,East,96,0.0,0.0,93,0.00,,,0.11,Wunderground v.1.15,2013-04-08 19:10:00,
2013-04-08 15:15:00,49.5,47.6,29.80,ENE,67,0.0,0.0,93,0.00,,,0.11,Wunderground v.1.15,2013-04-08 19:15:00,
2013-04-08 15:20:00,49.8,47.9,29.80,East,94,0.0,0.0,93,0.00,,,0.11,Wunderground v.1.15,2013-04-08 19:20:00,
2013-04-08 15:25:00,50.0,47.8,29.80,ENE,66,0.0,0.0,92,0.00,,,0.11,Wunderground v.1.15,2013-04-08 19:25:00,
2013-04-08 15:35:00,50.4,48.5,29.79,ENE,78,0.0,0.0,93,0.00,,,0.11,Wunderground v.1.15,2013-04-08 19:35:00,
2013-04-08 15:40:00,50.5,48.6,29.79,ENE,78,0.0,0.0,93,0.00,,,0.11,Wunderground v.1.15,2013-04-08 19:40:00,
2013-04-08 15:50:00,50.9,48.9,29.79,ENE,78,0.0,0.0,93,0.00,,,0.11,Wunderground v.1.15,2013-04-08 19:50:00,
2013-04-08 15:55:00,51.3,49.3,29.78,ENE,63,0.0,0.0,93,0.00,,,0.11,Wunderground v.1.15,2013-04-08 19:55:00,
2013-04-08 16:00:00,52.1,50.4,29.78,East,94,1.0,2.0,94,0.00,,,0.11,Wunderground v.1.15,2013-04-08 20:00:00,
2013-04-08 16:10:00,54.7,52.7,29.77,NE,53,1.0,1.0,93,0.00,,,0.11,Wunderground v.1.15,2013-04-08 20:10:00,
2013-04-08 16:20:00,58.1,54.2,29.77,SSW,200,2.0,2.0,87,0.00,,,0.11,Wunderground v.1.15,2013-04-08 20:20:00,
2013-04-08 16:25:00,59.3,54.5,29.77,SW,226,2.0,3.0,84,0.00,,,0.11,Wunderground v.1.15,2013-04-08 20:25:00,
2013-04-08 16:35:00,61.1,54.9,29.77,SW,214,2.0,3.0,80,0.00,,,0.11,Wunderground v.1.15,2013-04-08 20:35:00,
2013-04-08 16:45:00,62.4,55.4,29.76,SW,228,3.0,3.0,78,0.00,,,0.11,Wunderground v.1.15,2013-04-08 20:45:00,
2013-04-08 16:55:00,64.0,56.3,29.76,WSW,243,3.0,5.0,76,0.00,,,0.11,Wunderground v.1.15,2013-04-08 20:55:00,
2013-04-08 17:00:00,65.4,56.9,29.75,SW,217,5.0,5.0,74,0.00,,,0.12,Wunderground v.1.15,2013-04-08 21:00:00,
2013-04-08 17:10:00,67.3,57.2,29.75,SW,216,5.0,5.0,70,0.00,,,0.12,Wunderground v.1.15,2013-04-08 21:10:00,
2013-04-08 17:20:00,67.7,56.8,29.76,South,169,4.0,4.0,68,0.00,,,0.12,Wunderground v.1.15,2013-04-08 21:20:00,
2013-04-08 17:25:00,67.6,56.2,29.76,SW,221,4.0,4.0,67,0.00,,,0.12,Wunderground v.1.15,2013-04-08 21:25:00,
2013-04-08 17:35:00,67.8,56.0,29.76,WSW,246,3.0,4.0,66,0.00,,,0.12,Wunderground v.1.15,2013-04-08 21:35:00,
2013-04-08 17:40:00,68.2,56.0,29.76,SW,224,4.0,4.0,65,0.00,,,0.12,Wunderground v.1.15,2013-04-08 21:40:00,
2013-04-08 17:50:00,70.2,55.7,29.75,SW,219,7.0,7.0,60,0.00,,,0.12,Wunderground v.1.15,2013-04-08 21:50:00,
2013-04-08 18:00:00,70.8,55.8,29.75,WSW,248,7.0,9.0,59,0.00,,,0.12,Wunderground v.1.15,2013-04-08 22:00:00,
2013-04-08 18:10:00,70.9,55.4,29.76,SW,217,8.0,13.0,58,0.00,,,0.12,Wunderground v.1.15,2013-04-08 22:10:00,
2013-04-08 18:20:00,70.7,55.7,29.76,SW,221,7.0,7.0,59,0.00,,,0.12,Wunderground v.1.15,2013-04-08 22:20:00,
2013-04-08 18:30:00,70.3,55.3,29.77,WSW,252,6.0,6.0,59,0.00,,,0.12,Wunderground v.1.15,2013-04-08 22:30:00,
2013-04-08 18:35:00,70.4,55.8,29.77,SSW,207,6.0,6.0,60,0.00,,,0.12,Wunderground v.1.15,2013-04-08 22:35:00,
2013-04-08 18:45:00,70.6,55.6,29.77,WSW,252,5.0,6.0,59,0.00,,,0.12,Wunderground v.1.15,2013-04-08 22:45:00,
2013-04-08 18:50:00,70.5,55.9,29.78,SW,233,6.0,6.0,60,0.00,,,0.12,Wunderground v.1.15,2013-04-08 22:50:00,
2013-04-08 18:55:00,70.3,55.8,29.78,SW,224,5.0,6.0,60,0.00,,,0.12,Wunderground v.1.15,2013-04-08 22:55:00,
2013-04-08 19:00:00,70.0,55.9,29.78,SW,235,5.0,5.0,61,0.00,,,0.12,Wunderground v.1.15,2013-04-08 23:00:00,
2013-04-08 19:10:00,69.6,55.1,29.79,SW,236,5.0,8.0,60,0.00,,,0.12,Wunderground v.1.15,2013-04-08 23:10:00,
2013-04-08 19:15:00,69.6,54.6,29.79,SW,232,7.0,10.0,59,0.00,,,0.12,Wunderground v.1.15,2013-04-08 23:15:00,
2013-04-08 19:25:00,69.4,54.0,29.80,SW,231,7.0,10.0,58,0.00,,,0.12,Wunderground v.1.15,2013-04-08 23:25:00,
2013-04-08 19:35:00,69.3,53.9,29.80,WSW,238,7.0,7.0,58,0.00,,,0.12,Wunderground v.1.15,2013-04-08 23:35:00,
2013-04-08 19:40:00,69.1,53.7,29.81,WSW,238,6.0,6.0,58,0.00,,,0.12,Wunderground v.1.15,2013-04-08 23:40:00,
2013-04-08 19:50:00,68.3,53.4,29.82,West,280,5.0,5.0,59,0.00,,,0.12,Wunderground v.1.15,2013-04-08 23:50:00,
2013-04-08 19:55:00,67.4,53.0,29.82,WSW,253,5.0,5.0,60,0.00,,,0.12,Wunderground v.1.15,2013-04-08 23:55:00,
2013-04-08 20:00:00,66.9,53.0,29.83,West,281,6.0,6.0,61,0.00,,,0.12,Wunderground v.1.15,2013-04-09 00:00:00,
2013-04-08 20:10:00,66.1,52.7,29.84,West,261,5.0,5.0,62,0.00,,,0.12,Wunderground v.1.15,2013-04-09 00:10:00,
2013-04-08 20:20:00,65.1,52.2,29.85,West,262,5.0,5.0,63,0.00,,,0.12,Wunderground v.1.15,2013-04-09 00:20:00,
2013-04-08 20:25:00,64.7,51.8,29.85,West,279,6.0,6.0,63,0.00,,,0.12,Wunderground v.1.15,2013-04-09 00:25:00,
2013-04-08 20:35:00,63.8,51.4,29.86,WSW,238,7.0,7.0,64,0.00,,,0.12,Wunderground v.1.15,2013-04-09 00:35:00,
2013-04-08 20:45:00,63.0,50.6,29.87,WSW,255,7.0,11.0,64,0.00,,,0.12,Wunderground v.1.15,2013-04-09 00:45:00,
2013-04-08 20:55:00,62.2,49.9,29.88,WSW,249,6.0,11.0,64,0.00,,,0.12,Wunderground v.1.15,2013-04-09 00:55:00,
2013-04-08 21:00:00,61.9,49.6,29.88,West,260,7.0,7.0,64,0.00,,,0.12,Wunderground v.1.15,2013-04-09 01:00:00,
2013-04-08 21:10:00,61.3,49.0,29.89,WNW,296,6.0,6.0,64,0.00,,,0.12,Wunderground v.1.15,2013-04-09 01:10:00,
2013-04-08 21:15:00,61.0,48.3,29.89,WSW,238,5.0,10.0,63,0.00,,,0.12,Wunderground v.1.15,2013-04-09 01:15:00,
2013-04-08 21:25:00,60.7,47.2,29.90,West,262,7.0,7.0,61,0.00,,,0.12,Wunderground v.1.15,2013-04-09 01:25:00,
2013-04-08 21:30:00,60.4,46.9,29.91,WSW,252,7.0,7.0,61,0.00,,,0.12,Wunderground v.1.15,2013-04-09 01:30:00,
2013-04-08 21:35:00,59.9,46.8,29.91,WSW,252,6.0,7.0,62,0.00,,,0.12,Wunderground v.1.15,2013-04-09 01:35:00,
2013-04-08 21:45:00,59.0,46.4,29.92,WSW,238,5.0,5.0,63,0.00,,,0.12,Wunderground v.1.15,2013-04-09 01:45:00,
2013-04-08 21:50:00,58.7,46.1,29.93,WSW,246,5.0,5.0,63,0.00,,,0.12,Wunderground v.1.15,2013-04-09 01:50:00,
2013-04-08 22:00:00,58.1,45.6,29.93,WSW,258,6.0,6.0,63,0.00,,,0.12,Wunderground v.1.15,2013-04-09 02:00:00,
2013-04-08 22:05:00,57.7,45.6,29.93,West,259,6.0,6.0,64,0.00,,,0.12,Wunderground v.1.15,2013-04-09 02:05:00,
2013-04-08 22:20:00,56.8,45.6,29.95,WNW,289,5.0,5.0,66,0.00,,,0.12,Wunderground v.1.15,2013-04-09 02:20:00,
2013-04-08 22:30:00,56.1,45.3,29.95,WNW,282,5.0,6.0,67,0.00,,,0.12,Wunderground v.1.15,2013-04-09 02:30:00,
2013-04-08 22:35:00,55.7,45.3,29.96,West,262,6.0,6.0,68,0.00,,,0.12,Wunderground v.1.15,2013-04-09 02:35:00,
2013-04-08 22:45:00,54.9,45.3,29.96,NW,317,5.0,5.0,70,0.00,,,0.12,Wunderground v.1.15,2013-04-09 02:45:00,
2013-04-08 22:50:00,54.4,45.2,29.96,WNW,287,5.0,5.0,71,0.00,,,0.12,Wunderground v.1.15,2013-04-09 02:50:00,
2013-04-08 23:00:00,53.3,44.9,29.97,WNW,294,4.0,5.0,73,0.00,,,0.12,Wunderground v.1.15,2013-04-09 03:00:00,
2013-04-08 23:05:00,52.8,44.4,29.97,West,275,5.0,5.0,73,0.00,,,0.12,Wunderground v.1.15,2013-04-09 03:05:00,
2013-04-08 23:15:00,52.0,44.3,29.97,WNW,285,5.0,5.0,75,0.00,,,0.12,Wunderground v.1.15,2013-04-09 03:15:00,
2013-04-08 23:20:00,51.6,43.9,29.98,West,279,4.0,5.0,75,0.00,,,0.12,Wunderground v.1.15,2013-04-09 03:20:00,
2013-04-08 23:30:00,50.9,43.6,29.98,WNW,303,4.0,4.0,76,0.00,,,0.12,Wunderground v.1.15,2013-04-09 03:30:00,
2013-04-08 23:40:00,50.0,43.1,29.98,WNW,290,5.0,6.0,77,0.00,,,0.12,Wunderground v.1.15,2013-04-09 03:40:00,
2013-04-08 23:50:00,49.3,42.7,29.99,NW,306,5.0,5.0,78,0.00,,,0.12,Wunderground v.1.15,2013-04-09 03:50:00,
2013-04-08 23:55:00,48.9,42.7,29.99,WNW,297,4.0,5.0,79,0.00,,,0.12,Wunderground v.1.15,2013-04-09 03:55:00,